Showing default

KANOPUS-V-IK, 42825

Orbit data source: Space-Track

KANOPUS-V-IK, 42825 is a payload satellite owned by VNIIEM (CIS) in SSO that was launched on Fri, 14 Jul 2017 UTC via a SOYUZ-2-1A launch vehicle from the Tyuratam Missile And Space Complex (TTMTR). Payload-class satellites include a variety of spacecraft equipped with specific instruments for various scientific and technological missions. These include communications satellites like Starlink; space stations such as the ISS; scientific satellites like the Hubble; Earth observation satellites from companies like Planet Labs, Umbra, and HawkEye 360; GPS; miniature CubeSats for education and research; and military/defense satellites.

Loading next visibility...
Identifier
42825, 2017-042A
Orbit
SSO
Country
Flag of CISCIS
Related business
Manufacturer
VNIIEM
Mission
Operational Civil Imaging
Bus & Motor
KANOPUS, Unknown motor
Mass
550 kg wet, 550 kg dry
Launch date (UTC)
2017-07-14 (8 years ago)
Launch vehicle
SOYUZ-2-1A
Launch site
Tyuratam Missile And Space Complex (TTMTR)
Object type
Payload
Rocket body
Debris
Shape & HBR
Box + 2 Pan, 3.0 m
Radar Cross Section
1.665 m², Large (>1 m²)

Expand to show TLE details & history
Last TLE update: 17 hours ago

TLE from 17 hours ago
0 KANOPUS-V-IK
1 42825U 17042A   25288.83150510 -.00002016  00000-0 -82605-4 0  9999
2 42825  97.3668 194.0251 0001694  77.9932 282.1495 15.23125897458170
Epoch: 2025-10-15T19:57Z
TLE epoch observation values (Epoch: 2025-10-15T19:57:22.040Z)
Latitude
-0°
Longitude
-129.91667°
Altitude
499.27 km
Speed
7.615 km/s
True Right ascension
12h 56m 06s
True Declination
0° 00' 00"
Sunlit
Object was in daylight at epoch
Visualization orbit readout
Latitude
Unknown
Longitude
Unknown
Altitude
Unknown
Speed
Unknown
Apparent Right ascension
Unknown
Apparent Declination
Unknown
Sunlit
N/A
Visualization observer readout
Local Sidereal Time
07:54:28
Azimuth
Unknown
Elevation
Unknown
Doppler factor
Unknown
Orbital elements
Apogee altitude
494.543 km
Perigee altitude
492.215 km
Semi-major axis
6,871.516 km
Eccentricity
0.00017
Inclination
97.3668°
RAAN
194.0251°
Arg. of periapsis
77.9932°
True anomaly
282.13052°
Mean anomaly
282.1495°
Eccentric anomaly
282.14001°
Mean motion
3.81035 °/min
Orbital period
94.48 mins
BSTAR
-0.000082605
Loading maneuver chart data...
Computing Atmospheric mass density...

Documentation

Showing up to 5 results
|